Location: ???????
(55.4362°N, 38.1183°E)
Time: 02:35:29
(UTC+00:00)

Cosmos 1932 - Pass Details

Date: 23 October 2021
Orbit: 942 x 987 km, 65.0° (Epoch: 03 December)

Event Time Altitude Azimuth Distance (km) Brightness Sun altitude
Rises 15:29:38 0° 311° (NW) 3,618 8.2 -12.1°
Reaches altitude 10° 15:32:11 10° 313° (NW) 2,672 7.5 -12.4°
Maximum altitude 15:38:26 80° 40° (NE) 969 4.4 -13.3°
Enters shadow 15:44:25 11° 128° (SE) 2,571 6.2 -14.2°
